Powrót do katalogu

STARLINK-33642

AktywnyŁącznośćVLEO
NORAD 63978·PAYLOAD·🇺🇸 United States

Wystrzelony May 13, 2025 z Cape Canaveral Space Force Station

Loading…

Następne Przeloty (najbliższe 24 godziny)

TLE

ŚwieżeSource: CelesTrak SupGP

Epoka: Sep 14, 2026, 21:39 UTC

1 63978C 25099AC  26257.90256944 -.00012315  00000+0 -44599-3 0  2573
2 63978  42.9997 184.1092 0001149 264.2832 132.1479 15.27588125    14

Śledź STARLINK-33642 w czasie rzeczywistym z AllMySat

Download on the App Store